Location: Härggis
(46.9540°N, 8.4897°E)
Time: 20:58:33
(UTC+00:00)

Cosmos 304 Rocket - Pass Details

Date: 27 May 2022
Orbit: 679 x 686 km, 74.0° (Epoch: 03 July)

Event Time Altitude Azimuth Distance (km) Brightness Sun altitude
Exits shadow 00:15:52 47° 165° (SSE) 912 4.0 -20.8°
Maximum altitude 00:17:03 64° 108° (ESE) 762 3.9 -20.7°
Drops below altitude 10° 00:21:50 10° 28° (NNE) 2,144 7.4 -20.5°
Sets 00:24:10 0° 25° (NNE) 3,065 8.6 -20.4°
